Hourly Data Report for July 03, 2021

CARIBOU POINT (AUT)
NOVA SCOTIA
Current Station Operator: ECCC - MSC

45°46'00.000" N
62°41'00.000" W
2.40 m
8200774
71415
WBK

Download Data

Hourly Data (July 2021)
Hourly Data Report for July 3, 2021
TIME
LST
Temp Definition
°C
Dew Point Definition
°C
Rel Hum Definition
%
Precip. Amount Definition
mm

Wind Dir Definition
10's deg

Wind Spd Definition
km/h
Visibility Definition
km
Stn Press Definition
kPa
Hmdx Definition


Wind Chill Definition


Weather Definition


00:00 13.0 10.9 87 0.0 7 26   101.25     LegendNANA
01:00 13.0 11.0 88 0.0 7 27   101.24     LegendNANA
02:00 13.0 10.9 87 0.0 8 29   101.22     LegendNANA
03:00 13.1 10.9 87 0.0 8 31   101.19     LegendNANA
04:00 13.1 10.8 86 0.0 8 27   101.23     LegendNANA
05:00 13.2 11.3 89 0.0 8 25   101.27     LegendNANA
06:00 13.0 10.8 86 0.0 8 31   101.25     LegendNANA
07:00 12.8 11.2 91 0.0 8 29   101.29     LegendNANA
08:00 12.9 10.8 87 0.0 8 28   101.34     LegendNANA
09:00 13.1 11.1 88 0.0 8 29   101.33     LegendNANA
10:00 13.2 10.9 86 0.0 8 30   101.35     LegendNANA
11:00 13.4 11.1 86 0.0 8 31   101.33     LegendNANA
12:00 13.9 11.6 86 0.0 8 32   101.31     LegendNANA
13:00 14.3 11.7 84 0.0 8 33   101.28     LegendNANA
14:00 14.4 11.9 85 0.0 8 32   101.24     LegendNANA
15:00 14.6 11.9 84 0.0 8 32   101.22     LegendNANA
16:00 14.4 11.9 85 0.0 8 29   101.19     LegendNANA
17:00 14.4 12.2 86 0.0 7 29   101.14     LegendNANA
18:00 14.5 12.4 87 0.0 8 29   101.12     LegendNANA
19:00 14.3 12.2 88 0.0 8 37   101.10     LegendNANA
20:00 14.0 12.0 88 0.0 8 35   101.08     LegendNANA
21:00 14.0 12.1 89 0.0 7 32   101.09     LegendNANA
22:00 13.9 12.1 89 0.0 6 30   101.01     LegendNANA
23:00 13.8 11.8 88 0.0 6 38   100.96     LegendNANA

Notes on Data Quality.

Legend

  • E = Estimated
  • M = Missing
  • NA = Not Available*
  • [empty] = Indicates an unobserved value
Date modified: